Home   Weather   Ulaanbaatar   Past weeks

Flag for Mongolia Past Weather in Ulaanbaatar, Mongolia — Yesterday and Last 2 Weeks

28 °F


Feels Like: 25 °F
Forecast: 9 / 21 °F
Wind: 3 mph from North

Location: Ulan-Bator

Current Time: Oct 26, 2016 at 3:43:22 PM

Latest Report: Oct 26, 2016 at 3:00 PM

Visibility: 10 mi

Pressure: 29.95 "Hg (25.43 "Hg at 1298m altitude)

Humidity: 43%

Dew Point: 9 °F

Location of UlaanbaatarLocation

Past Weather in Ulaanbaatar — Graph


Ulaanbaatar Temperature Yesterday

Maximum temperature yesterday: 23 °F (at 12:00 AM)
Minimum temperature yesterday: 10 °F (at 5:30 AM)
Average temperature yesterday: 17 °F

High & Low Weather Summary for the Past Weeks

High66 °F (Oct 14, 3:00 PM)93% (Oct 12, 3:00 AM)30.27 "Hg (Oct 12, 3:00 AM)
Low0 °F (Oct 26, 7:30 AM)14% (Oct 14, 5:00 PM)29.71 "Hg (Oct 18, 12:30 PM)
Average31 °F64%30.01 "Hg
* Reported Oct 11 2:00 PM — Oct 26 2:30 PM, Ulaanbaatar, Weather by CustomWeather, © 2016

Note: Actual official high and low records may vary slightly from our data, if they occured in-between our weather recording intervals... More about our weather records


Ulaanbaatar Weather History for the Previous 24 Hours

Scroll right to see more
Time TempWeatherWind HumidityBarometerVisibility
2:30 PM
Wed, Oct 26
28 °FPassing clouds.8 mph47%29.98 "HgN/A
2:00 PM28 °FPassing clouds.8 mph40%29.98 "HgN/A
1:30 PM28 °FSunny.6 mph40%29.98 "Hg10 mi
1:00 PM28 °FSunny.6 mph37%29.98 "Hg10 mi
12:30 PM27 °FSunny.1 mph43%29.98 "Hg10 mi
12:00 PM25 °FSunny.3 mph46%29.98 "Hg10 mi
11:30 AM23 °FSunny.1 mph50%30.01 "Hg10 mi
11:00 AM21 °FSunny.1 mph54%30.01 "Hg10 mi
10:30 AM18 °FSunny.3 mph62%30.01 "Hg10 mi
10:00 AM16 °FSunny.No wind67%30.04 "Hg10 mi
9:30 AM14 °FSunny.No wind73%30.04 "Hg10 mi
9:00 AM10 °FSunny.3 mph72%30.04 "Hg10 mi
8:30 AM5 °FSunny.1 mph85%30.04 "Hg10 mi
8:00 AM3 °FClear.3 mph85%30.04 "Hg10 mi
7:30 AM0 °FClear.1 mph84%30.04 "Hg10 mi
7:00 AM1 °FClear.No wind78%30.04 "Hg10 mi
6:30 AM1 °FClear.1 mph85%30.04 "Hg10 mi
6:00 AM1 °FClear.1 mph85%30.04 "Hg10 mi
5:30 AM3 °FClear.No wind78%30.04 "Hg10 mi
5:00 AM3 °FClear.1 mph85%30.04 "Hg10 mi
4:30 AM3 °FClear.No wind85%30.04 "Hg10 mi
4:00 AM3 °FClear.1 mph85%30.04 "Hg10 mi
3:00 AM3 °FClear.No wind78%30.04 "Hg10 mi
2:00 AM5 °FClear.No wind85%30.04 "Hg10 mi
1:00 AM5 °FClear.1 mph78%30.04 "Hg10 mi
12:00 AM10 °FClear.3 mph79%30.04 "Hg10 mi
11:30 PM
Tue, Oct 25
12 °FClear.3 mph73%30.04 "Hg10 mi
11:00 PM12 °FClear.1 mph73%30.04 "Hg10 mi
10:30 PM12 °FClear.1 mph67%30.04 "Hg10 mi
10:00 PM14 °FClear.6 mph67%30.04 "Hg10 mi
9:30 PM14 °FClear.6 mph67%30.01 "Hg10 mi
9:00 PM14 °FClear.6 mph67%30.01 "Hg10 mi
8:30 PM14 °FClear.8 mph67%30.01 "Hg10 mi
8:00 PM14 °FClear.8 mph67%30.01 "Hg10 mi
7:30 PM14 °FClear.8 mph73%30.01 "Hg10 mi
7:00 PM14 °FClear.10 mph73%29.98 "Hg10 mi
6:30 PM16 °FSunny.8 mph67%29.98 "Hg10 mi
6:00 PM19 °FSunny.8 mph58%29.95 "Hg10 mi
5:30 PM21 °FSunny.8 mph49%29.95 "Hg10 mi
5:00 PM23 °FSunny.8 mph39%29.95 "Hg10 mi
4:30 PM23 °FSunny.3 mph36%29.95 "Hg10 mi
4:00 PM23 °FPassing clouds.6 mph39%29.92 "HgN/A
3:30 PM23 °FPassing clouds.8 mph36%29.92 "HgN/A
3:00 PM23 °FPassing clouds.6 mph46%29.92 "HgN/A
Weather by CustomWeather, © 2016

See weather overviewHow to use our weather pages